Minneapolis Crystal, MN

5:19 AM CDT on March 24, 2017 (GMT -0500)
Crystal

Weather History for KMIC - February, 2014

Change the Weather History Date:

Tuesday, February 18, 2014

  Actual Average Record
Temperature  
Mean Temperature 30 °F -  
Max Temperature 41 °F 29 °F 59 °F (2017)
Min Temperature 19 °F 14 °F -13 °F (2006)
Degree Days  
Heating Degree Days 35    
Moisture  
Dew Point 21 °F    
Average Humidity 72    
Maximum Humidity 89    
Minimum Humidity 51    
Precipitation  
Precipitation 0.00 in - - ()
Sea Level Pressure  
Sea Level Pressure 29.64 in    
Wind  
Wind Speed 6 mph (SW)    
Max Wind Speed 10 mph    
Max Gust Speed -    
Visibility 10 miles    
Events      
Averages and records for this station are not official NWS values.
T = Trace of Precipitation, MM = Missing Value Source: NWS Daily Summary

Daily Weather History Graph

Daily Weather History Graph

Search for Another Location

Airport or City:

Trip Planner

Search our weather history database for the weather conditions in past years. The results will help you decide how hot, cold, wet, or windy it might be!

Date:

Astronomy

Feb. 18, 2014 Rise Set
Actual Time 7:09 AM CST 5:45 PM CST
Civil Twilight 6:39 AM CST 6:15 PM CST
Nautical Twilight 6:05 AM CST 6:49 PM CST
Astronomical Twilight 5:31 AM CST 7:23 PM CST
Moon 9:52 PM CST (2/18) 8:31 AM CST (2/18)
Length of Visible Light 11h 36m
Length of Day
10h 36m
Waning Gibbous, 87% of the Moon is Illuminated
Feb 18
Waning Gibbous
Feb 22
Last Quarter
Mar 1
New
Mar 8
First Quarter
Mar 16
Full

Hourly Weather History & Observations

Time (CST) Temp. Windchill Dew Point Humidity Pressure Visibility Wind Dir Wind Speed Gust Speed Precip Events Conditions
12:53 AM 19.9 °F 12.1 °F 17.1 °F 89% 29.76 in 5.0 mi SSE 5.8 mph - N/A   Clear
1:53 AM 21.9 °F 13.4 °F 19.0 °F 89% 29.73 in 6.0 mi SSE 6.9 mph - N/A   Clear
2:53 AM 23.0 °F 15.8 °F 19.9 °F 88% 29.69 in 9.0 mi SSE 5.8 mph - N/A   Clear
3:53 AM 21.0 °F 16.2 °F 18.0 °F 88% 29.65 in 9.0 mi SE 3.5 mph - N/A   Clear
4:53 AM 19.9 °F 13.4 °F 16.0 °F 85% 29.62 in 10.0 mi SSE 4.6 mph - N/A   Clear
5:53 AM 19.9 °F 11.1 °F 16.0 °F 85% 29.60 in 10.0 mi SSE 6.9 mph - N/A   Clear
6:53 AM 19.0 °F 13.9 °F 15.1 °F 85% 29.59 in 10.0 mi South 3.5 mph - N/A   Clear
7:53 AM 21.0 °F 14.6 °F 17.1 °F 85% 29.59 in 10.0 mi SSE 4.6 mph - N/A   Clear
8:53 AM 23.0 °F 15.8 °F 18.0 °F 81% 29.59 in 10.0 mi SSE 5.8 mph - N/A   Clear
9:53 AM 30.0 °F 24.1 °F 21.0 °F 69% 29.58 in 10.0 mi South 5.8 mph - N/A   Clear
10:53 AM 35.1 °F 30.1 °F 23.0 °F 61% 29.57 in 10.0 mi South 5.8 mph - N/A   Clear
11:53 AM 37.0 °F 32.4 °F 24.1 °F 59% 29.58 in 10.0 mi West 5.8 mph - N/A   Clear
12:53 PM 39.0 °F 35.7 °F 25.0 °F 57% 29.57 in 10.0 mi West 4.6 mph - N/A   Clear
1:53 PM 39.9 °F 34.5 °F 24.1 °F 53% 29.57 in 10.0 mi WNW 8.1 mph - N/A   Clear
2:53 PM 41.0 °F 39.0 °F 25.0 °F 53% 29.57 in 10.0 mi West 3.5 mph - N/A   Clear
3:53 PM 41.0 °F 35.8 °F 24.1 °F 51% 29.59 in 10.0 mi WNW 8.1 mph - N/A   Clear
4:53 PM 39.9 °F 35.8 °F 25.0 °F 55% 29.62 in 10.0 mi WNW 5.8 mph - N/A   Overcast
5:53 PM 37.9 °F 32.7 °F 26.1 °F 62% 29.65 in 10.0 mi West 6.9 mph - N/A   Mostly Cloudy
6:53 PM 37.9 °F 31.5 °F 27.0 °F 65% 29.68 in 10.0 mi West 9.2 mph - N/A   Partly Cloudy
7:53 PM 35.1 °F 27.9 °F 26.1 °F 70% 29.70 in 10.0 mi West 9.2 mph - N/A   Clear
9:53 PM 30.9 °F 22.2 °F 21.9 °F 69% 29.75 in 10.0 mi West 10.4 mph - N/A   Clear
10:53 PM 28.9 °F 19.8 °F 21.0 °F 72% 29.77 in 10.0 mi West 10.4 mph - N/A   Clear
11:53 PM 27.0 °F 18.0 °F 19.9 °F 75% 29.77 in 10.0 mi WNW 9.2 mph - N/A   Clear